Weather History for Glenwood, MN

Change the Weather History Date:

Wednesday, April 30, 2014

  Actual Average Record
Temperature  
Mean Temperature 40 °F -  
Max Temperature 44 °F 61 °F 86 °F (1952)
Min Temperature 35 °F 37 °F 14 °F (1966)
Degree Days  
Heating Degree Days 26    
Moisture  
Dew Point 36 °F    
Average Humidity 87    
Maximum Humidity 93    
Minimum Humidity 71    
Precipitation  
Precipitation 0.05 in - - ()
Sea Level Pressure  
Sea Level Pressure 29.84 in    
Wind  
Wind Speed 13 mph (NNW)    
Max Wind Speed 18 mph    
Max Gust Speed 26 mph    
Visibility 10 miles    
Events Rain    
Averages and records for this station are not official NWS values.
T = Trace of Precipitation, MM = Missing Value Source: NWS Daily Summary

Daily Weather History Graph

Daily Weather History Graph

Search for Another Location

Airport:

Trip Planner

Search our weather history database for the weather conditions in past years. The results will help you decide how hot, cold, wet, or windy it might be!

Date:

Astronomy

Apr. 30, 2014 Rise Set
Actual Time 6:10 AM CDT 8:27 PM CDT
Civil Twilight 5:37 AM CDT 9:00 PM CDT
Nautical Twilight 4:57 AM CDT 9:40 PM CDT
Astronomical Twilight 4:11 AM CDT 10:26 PM CDT
Moon 7:10 AM CDT 10:09 PM CDT
Length of Visible Light 15h 22m
Length of Day
14h 16m
New Moon, 2% of the Moon is Illuminated
Apr 30
New Moon
May 6
First Quarter
May 14
Full
May 21
Last Quarter
May 28
New

Hourly Weather History & Observations

Time (CDT) Temp. Windchill Dew Point Humidity Pressure Visibility Wind Dir Wind Speed Gust Speed Precip Events Conditions
12:13 AM 39.2 °F 32.5 °F 35.6 °F 87% 29.85 in 10.0 mi North 10.4 mph - N/A   Scattered Clouds
12:33 AM 39.2 °F 32.5 °F 35.6 °F 87% 29.85 in 10.0 mi North 10.4 mph - N/A   Drizzle
12:54 AM 37.4 °F 29.3 °F 35.6 °F 93% 29.84 in 10.0 mi North 12.7 mph 20.7 mph N/A Rain Rain
1:13 AM 37.4 °F 29.8 °F 35.6 °F 93% 29.84 in 10.0 mi North 11.5 mph - N/A   Light Drizzle
1:33 AM 37.4 °F 28.9 °F 35.6 °F 93% 29.84 in 10.0 mi North 13.8 mph 18.4 mph N/A   Drizzle
1:54 AM 37.4 °F 29.3 °F 35.6 °F 93% 29.84 in 7.0 mi North 12.7 mph - N/A   Drizzle
2:13 AM 35.6 °F 27.1 °F 33.8 °F 93% 29.84 in 7.0 mi North 12.7 mph 19.6 mph N/A   Drizzle
2:33 AM 35.6 °F 27.1 °F 33.8 °F 93% 29.84 in 7.0 mi North 12.7 mph - N/A   Drizzle
2:53 AM 35.6 °F 27.5 °F 33.8 °F 93% 29.84 in 10.0 mi North 11.5 mph - N/A   Drizzle
3:13 AM 35.6 °F 27.5 °F 33.8 °F 93% 29.84 in 10.0 mi North 11.5 mph - 0.01 in   Drizzle
3:33 AM 35.6 °F 27.1 °F 33.8 °F 93% 29.83 in 10.0 mi North 12.7 mph - 0.01 in   Drizzle
3:53 AM 35.6 °F 27.5 °F 33.8 °F 93% 29.84 in 10.0 mi NNW 11.5 mph - 0.01 in   Drizzle
4:13 AM 35.6 °F 26.6 °F 33.8 °F 93% 29.83 in 7.0 mi NNW 13.8 mph - 0.01 in Rain Rain
4:34 AM 35.6 °F 27.5 °F 33.8 °F 93% 29.83 in 10.0 mi NNW 11.5 mph 17.3 mph 0.01 in   Light Drizzle
4:53 AM 35.6 °F 27.5 °F 33.8 °F 93% 29.83 in 10.0 mi NNW 11.5 mph - 0.01 in   Overcast
5:13 AM 35.6 °F 26.2 °F 33.8 °F 93% 29.83 in 10.0 mi NNW 15.0 mph - N/A   Light Drizzle
5:33 AM 35.6 °F 27.1 °F 33.8 °F 93% 29.83 in 10.0 mi NNW 12.7 mph 17.3 mph N/A   Light Drizzle
5:53 AM 35.6 °F 27.1 °F 33.8 °F 93% 29.84 in 10.0 mi NNW 12.7 mph - N/A   Light Drizzle
6:14 AM 35.6 °F 27.1 °F 33.8 °F 93% 29.84 in 10.0 mi NNW 12.7 mph 18.4 mph N/A   Light Drizzle
6:33 AM 35.6 °F 26.6 °F 33.8 °F 93% 29.84 in 10.0 mi North 13.8 mph - N/A   Overcast
6:53 AM 35.6 °F 27.5 °F 33.8 °F 93% 29.84 in 10.0 mi North 11.5 mph 18.4 mph N/A   Light Drizzle
7:14 AM 35.6 °F 25.9 °F 33.8 °F 93% 29.84 in 10.0 mi NNW 16.1 mph - N/A   Light Drizzle
7:33 AM 35.6 °F 26.2 °F 33.8 °F 93% 29.84 in 10.0 mi North 15.0 mph 18.4 mph N/A Rain Light Rain
7:53 AM 35.6 °F 26.2 °F 33.8 °F 93% 29.84 in 10.0 mi NNW 15.0 mph - N/A   Light Drizzle
8:13 AM 37.4 °F 28.5 °F 33.8 °F 87% 29.84 in 10.0 mi NNW 15.0 mph 23.0 mph N/A   Light Drizzle
8:33 AM 37.4 °F 28.2 °F 35.6 °F 93% 29.84 in 10.0 mi NNW 16.1 mph - N/A   Light Drizzle
8:53 AM 37.4 °F 28.5 °F 33.8 °F 87% 29.84 in 10.0 mi NNW 15.0 mph 20.7 mph N/A   Light Drizzle
9:13 AM 37.4 °F 28.5 °F 35.6 °F 93% 29.84 in 10.0 mi North 15.0 mph 24.2 mph N/A   Light Drizzle
9:33 AM 37.4 °F 27.8 °F 35.6 °F 93% 29.84 in 10.0 mi North 17.3 mph 23.0 mph N/A   Light Drizzle
10:13 AM 37.4 °F 27.5 °F 35.6 °F 93% 29.84 in 10.0 mi NNW 18.4 mph 23.0 mph N/A   Overcast
10:33 AM 37.4 °F 28.5 °F 35.6 °F 93% 29.84 in 10.0 mi NNW 15.0 mph 25.3 mph N/A   Overcast
10:53 AM 39.2 °F 30.5 °F 35.6 °F 87% 29.84 in 10.0 mi NNW 16.1 mph 21.9 mph N/A   Overcast
11:13 AM 39.2 °F 30.2 °F 35.6 °F 87% 29.84 in 10.0 mi NNW 17.3 mph 20.7 mph N/A   Overcast
11:54 AM 41.0 °F 33.1 °F 35.6 °F 81% 29.84 in 10.0 mi NNW 15.0 mph 21.9 mph N/A   Overcast
12:13 PM 42.8 °F 34.5 °F 37.4 °F 81% 29.83 in 10.0 mi NNW 18.4 mph 21.9 mph N/A   Overcast
12:33 PM 42.8 °F 34.8 °F 37.4 °F 81% 29.83 in 10.0 mi NNW 17.3 mph 24.2 mph N/A   Overcast
12:53 PM 44.6 °F 36.9 °F 37.4 °F 76% 29.83 in 10.0 mi NNW 18.4 mph 26.5 mph N/A   Overcast
1:13 PM 44.6 °F 37.2 °F 35.6 °F 71% 29.83 in 10.0 mi NNW 17.3 mph 24.2 mph N/A   Overcast
1:33 PM 44.6 °F 36.9 °F 35.6 °F 71% 29.83 in 10.0 mi NNW 18.4 mph 21.9 mph N/A   Overcast
1:53 PM 44.6 °F 38.1 °F 35.6 °F 71% 29.83 in 10.0 mi NNW 13.8 mph 21.9 mph N/A   Overcast
2:13 PM 44.6 °F 37.2 °F 35.6 °F 71% 29.83 in 10.0 mi NW 17.3 mph - N/A   Overcast
2:33 PM 44.6 °F 37.2 °F 35.6 °F 71% 29.83 in 10.0 mi NNW 17.3 mph - N/A   Overcast
2:53 PM 44.6 °F 37.2 °F 35.6 °F 71% 29.83 in 10.0 mi NNW 17.3 mph - N/A   Overcast
3:13 PM 42.8 °F 36.2 °F 35.6 °F 76% 29.84 in 10.0 mi NNW 12.7 mph 21.9 mph N/A   Overcast
3:53 PM 42.8 °F 36.2 °F 35.6 °F 76% 29.83 in 10.0 mi NNW 12.7 mph 19.6 mph N/A   Overcast
4:13 PM 42.8 °F 35.8 °F 35.6 °F 76% 29.84 in 10.0 mi NNW 13.8 mph - N/A   Overcast
4:33 PM 42.8 °F 36.2 °F 35.6 °F 76% 29.84 in 10.0 mi NNW 12.7 mph 18.4 mph N/A   Overcast
4:53 PM 42.8 °F 35.4 °F 35.6 °F 76% 29.83 in 10.0 mi NNW 15.0 mph 23.0 mph N/A   Overcast
5:13 PM 42.8 °F 35.1 °F 37.4 °F 81% 29.83 in 10.0 mi NNW 16.1 mph - N/A   Light Drizzle
5:34 PM 42.8 °F 35.1 °F 37.4 °F 81% 29.84 in 10.0 mi NNW 16.1 mph - N/A   Light Drizzle
5:53 PM 42.8 °F 35.4 °F 37.4 °F 81% 29.84 in 7.0 mi NNW 15.0 mph - N/A Rain Light Rain
6:13 PM 42.8 °F 35.1 °F 37.4 °F 81% 29.84 in 5.0 mi NNW 16.1 mph - N/A Rain Light Rain
6:34 PM 42.8 °F 34.8 °F 37.4 °F 81% 29.84 in 7.0 mi NNW 17.3 mph 21.9 mph N/A Rain Rain
6:53 PM 41.0 °F 33.5 °F 37.4 °F 87% 29.84 in 10.0 mi NNW 13.8 mph 18.4 mph 0.01 in Rain Light Rain
7:13 PM 41.0 °F 34.3 °F 37.4 °F 87% 29.85 in 10.0 mi NNW 11.5 mph - N/A   Drizzle
7:34 PM 39.2 °F 30.8 °F 37.4 °F 93% 29.84 in 10.0 mi NNW 15.0 mph - 0.01 in Rain Light Rain
7:53 PM 39.2 °F 30.8 °F 37.4 °F 93% 29.85 in 10.0 mi NNW 15.0 mph 20.7 mph 0.01 in Rain Light Rain
8:13 PM 39.2 °F 32.5 °F 37.4 °F 93% 29.85 in 10.0 mi NNW 10.4 mph 13.8 mph N/A   Light Drizzle
8:33 PM 39.2 °F 32.0 °F 37.4 °F 93% 29.84 in 10.0 mi NNW 11.5 mph - N/A   Light Drizzle
8:53 PM 39.2 °F 32.5 °F 37.4 °F 93% 29.84 in 10.0 mi NNW 10.4 mph - N/A   Drizzle
9:13 PM 39.2 °F 30.8 °F 37.4 °F 93% 29.84 in 10.0 mi NNW 15.0 mph - N/A   Light Drizzle
9:33 PM 39.2 °F 30.8 °F 37.4 °F 93% 29.85 in 10.0 mi NNW 15.0 mph - 0.01 in   Light Drizzle
9:53 PM 39.2 °F 32.5 °F 37.4 °F 93% 29.85 in 10.0 mi NNW 10.4 mph - 0.01 in   Drizzle
10:13 PM 39.2 °F 32.0 °F 37.4 °F 93% 29.85 in 10.0 mi NNW 11.5 mph - N/A   Drizzle
10:33 PM 39.2 °F 30.8 °F 37.4 °F 93% 29.84 in 10.0 mi NNW 15.0 mph 18.4 mph N/A   Light Drizzle
10:53 PM 39.2 °F 31.6 °F 35.6 °F 87% 29.84 in 10.0 mi NNW 12.7 mph 20.7 mph N/A   Drizzle
11:14 PM 37.4 °F 29.8 °F 35.6 °F 93% 29.84 in 10.0 mi NNW 11.5 mph - N/A   Light Drizzle
11:33 PM 37.4 °F 28.9 °F 35.6 °F 93% 29.84 in 10.0 mi NNW 13.8 mph 18.4 mph N/A   Light Drizzle
11:53 PM 37.4 °F 29.8 °F 35.6 °F 93% 29.83 in 7.0 mi NNW 11.5 mph 18.4 mph N/A   Light Drizzle